STARLINK-34273

Last updated on Tue Aug 26 2025 00:02:05 GMT+0000 (Coordinated Universal Time)

1 64905U 25157B 25237.58336806 .00019192 00000+0 42137-3 0 9993 2 64905 53.1601 187.5591 0000949 104.0526 274.9323 15.44083808 6049

Satellite not in orbit

STARLINK-34273